| time (UTC) | temp F | wind direction | speed MPH | gust MPH | rain 1hr in | rain 24hr in | rain mn in | humidity % | barometer mb |
| 20260504081534 | 49 | 360 | 13.0 | 0.0 | 0.00 | 0.00 | 0.00 | 46 | 1005.9 |
| 20260504081030 | 49 | 360 | 12.0 | 0.0 | 0.00 | 0.00 | 0.00 | 46 | 1005.7 |
| 20260504080529 | 49 | 360 | 11.0 | 0.0 | 0.00 | 0.00 | 0.00 | 47 | 1005.6 |
| 20260504050511 | 56 | 360 | 13.0 | 0.0 | 0.00 | 0.00 | 0.00 | 40 | 1003.3 |
| 20260504050012 | 56 | 360 | 12.0 | 0.0 | 0.00 | 0.00 | 0.00 | 40 | 1003.3 |
| 20260504045010 | 56 | 360 | 12.0 | 0.0 | 0.00 | 0.00 | 0.00 | 41 | 1003.0 |
| 20260504044514 | 56 | 360 | 12.0 | 0.0 | 0.00 | 0.00 | 0.00 | 43 | 1003.0 |
| 20260504044010 | 56 | 360 | 12.0 | 0.0 | 0.00 | 0.00 | 0.00 | 44 | 1003.1 |
| 20260504043510 | 56 | 360 | 12.0 | 0.0 | 0.00 | 0.00 | 0.00 | 44 | 1003.2 |
| 20260504043013 | 56 | 360 | 13.0 | 0.0 | 0.00 | 0.00 | 0.00 | 44 | 1003.3 |
| 20260504042509 | 57 | 360 | 15.0 | 0.0 | 0.00 | 0.00 | 0.00 | 43 | 1003.3 |
| 20260504042009 | 57 | 360 | 13.0 | 0.0 | 0.00 | 0.00 | 0.00 | 42 | 1003.2 |
| 20260504041532 | 57 | 360 | 12.0 | 0.0 | 0.00 | 0.00 | 0.00 | 43 | 1003.1 |
| 20260504041009 | 58 | 360 | 12.0 | 0.0 | 0.00 | 0.00 | 0.00 | 43 | 1003.1 |
| 20260504040510 | 58 | 360 | 13.0 | 0.0 | 0.00 | 0.00 | 0.00 | 42 | 1002.9 |
| 20260504040015 | 58 | 360 | 13.0 | 0.0 | 0.00 | 0.00 | 0.00 | 41 | 1002.7 |
| 20260504035010 | 58 | 360 | 11.0 | 0.0 | 0.00 | 0.00 | 0.00 | 40 | 1002.5 |
| 20260504034511 | 59 | 360 | 11.0 | 0.0 | 0.00 | 0.00 | 0.00 | 40 | 1002.3 |
| 20260504034009 | 59 | 360 | 13.0 | 0.0 | 0.00 | 0.00 | 0.00 | 39 | 1002.1 |
| 20260504033509 | 60 | 360 | 15.0 | 0.0 | 0.00 | 0.00 | 0.00 | 38 | 1001.9 |
| 20260504033009 | 60 | 360 | 16.0 | 0.0 | 0.00 | 0.00 | 0.00 | 38 | 1001.8 |
| 20260504032511 | 61 | 360 | 17.0 | 0.0 | 0.00 | 0.00 | 0.00 | 38 | 1001.7 |
| 20260504032009 | 61 | 360 | 18.0 | 0.0 | 0.00 | 0.00 | 0.00 | 37 | 1001.5 |
| 20260504031509 | 61 | 360 | 21.0 | 0.0 | 0.00 | 0.00 | 0.00 | 37 | 1001.4 |
| 20260504031008 | 62 | 360 | 23.0 | 0.0 | 0.00 | 0.00 | 0.00 | 36 | 1001.2 |
| 20260504030508 | 62 | 360 | 21.0 | 0.0 | 0.00 | 0.00 | 0.00 | 36 | 1000.9 |
| 20260504030008 | 64 | 360 | 17.0 | 0.0 | 0.00 | 0.00 | 0.00 | 34 | 1000.8 |
| 20260504025007 | 69 | 360 | 13.0 | 0.0 | 0.00 | 0.00 | 0.00 | 32 | 999.8 |
| 20260504024506 | 68 | 360 | 13.0 | 0.0 | 0.00 | 0.00 | 0.00 | 33 | 999.8 |
| 20260504024006 | 69 | 360 | 14.0 | 0.0 | 0.00 | 0.00 | 0.00 | 32 | 999.8 |
| 20260504023507 | 68 | 360 | 14.0 | 0.0 | 0.00 | 0.00 | 0.00 | 33 | 999.7 |
| 20260504023007 | 69 | 360 | 15.0 | 0.0 | 0.00 | 0.00 | 0.00 | 32 | 999.7 |
| 20260504022507 | 69 | 360 | 15.0 | 0.0 | 0.00 | 0.00 | 0.00 | 32 | 999.7 |
| 20260504022006 | 69 | 360 | 15.0 | 0.0 | 0.00 | 0.00 | 0.00 | 32 | 999.7 |
| 20260504021506 | 69 | 360 | 16.0 | 0.0 | 0.00 | 0.00 | 0.00 | 32 | 999.6 |
| 20260504021006 | 70 | 360 | 17.0 | 0.0 | 0.00 | 0.00 | 0.00 | 31 | 999.6 |
| 20260504020505 | 70 | 360 | 17.0 | 0.0 | 0.00 | 0.00 | 0.00 | 31 | 999.5 |
| 20260504020009 | 70 | 360 | 16.0 | 0.0 | 0.00 | 0.00 | 0.00 | 31 | 999.5 |
| 20260504015007 | 71 | 360 | 17.0 | 0.0 | 0.00 | 0.00 | 0.00 | 31 | 999.5 |
| 20260504014505 | 71 | 360 | 17.0 | 0.0 | 0.00 | 0.00 | 0.00 | 30 | 999.5 |
| 20260504014009 | 72 | 360 | 18.0 | 0.0 | 0.00 | 0.00 | 0.00 | 29 | 999.5 |
| 20260504013508 | 72 | 360 | 18.0 | 0.0 | 0.00 | 0.00 | 0.00 | 28 | 999.5 |
| 20260504013005 | 72 | 360 | 18.0 | 0.0 | 0.00 | 0.00 | 0.00 | 26 | 999.5 |
| 20260504012508 | 73 | 360 | 18.0 | 0.0 | 0.00 | 0.00 | 0.00 | 25 | 999.4 |
| 20260504012005 | 73 | 360 | 17.0 | 0.0 | 0.00 | 0.00 | 0.00 | 23 | 999.5 |
| 20260504011505 | 73 | 360 | 17.0 | 0.0 | 0.00 | 0.00 | 0.00 | 22 | 999.5 |
| 20260504011004 | 74 | 360 | 17.0 | 0.0 | 0.00 | 0.00 | 0.00 | 21 | 999.5 |
| 20260504010506 | 74 | 360 | 14.0 | 0.0 | 0.00 | 0.00 | 0.00 | 23 | 999.6 |
| 20260504010004 | 74 | 360 | 14.0 | 0.0 | 0.00 | 0.00 | 0.00 | 23 | 999.5 |
| 20260504005003 | 74 | 360 | 16.0 | 0.0 | 0.00 | 0.00 | 0.00 | 23 | 999.6 |
| 20260504004505 | 74 | 360 | 18.0 | 0.0 | 0.00 | 0.00 | 0.00 | 23 | 999.7 |
| 20260504004001 | 75 | 360 | 19.0 | 0.0 | 0.00 | 0.00 | 0.00 | 22 | 999.7 |
| 20260504003501 | 75 | 360 | 20.0 | 0.0 | 0.00 | 0.00 | 0.00 | 21 | 999.7 |
| 20260504003001 | 75 | 360 | 20.0 | 0.0 | 0.00 | 0.00 | 0.00 | 21 | 999.8 |
| 20260504002600 | 76 | 360 | 20.0 | 0.0 | 0.00 | 0.00 | 0.00 | 21 | 999.9 |
| 20260504002059 | 76 | 360 | 20.0 | 0.0 | 0.00 | 0.00 | 0.00 | 20 | 1000.0 |
| 20260504001600 | 76 | 360 | 20.0 | 0.0 | 0.00 | 0.00 | 0.00 | 20 | 1000.1 |
| 20260504001059 | 76 | 360 | 21.0 | 0.0 | 0.00 | 0.00 | 0.00 | 20 | 1000.0 |
| 20260504000558 | 76 | 360 | 22.0 | 0.0 | 0.00 | 0.00 | 0.00 | 21 | 1000.1 |
| 20260504000107 | 76 | 360 | 21.0 | 0.0 | 0.00 | 0.00 | 0.00 | 21 | 1000.1 |
| 20260503235559 | 77 | 360 | 20.0 | 0.0 | 0.00 | 0.00 | 0.00 | 21 | 1000.0 |
| 20260503235058 | 76 | 360 | 18.0 | 0.0 | 0.00 | 0.00 | 0.00 | 23 | 1000.2 |
| 20260503234556 | 76 | 360 | 15.0 | 0.0 | 0.00 | 0.00 | 0.00 | 24 | 1000.3 |
| 20260503234055 | 76 | 360 | 15.0 | 0.0 | 0.00 | 0.00 | 0.00 | 25 | 1000.5 |
| 20260503233556 | 75 | 360 | 16.0 | 0.0 | 0.00 | 0.00 | 0.00 | 25 | 1000.6 |
| 20260503233054 | 76 | 360 | 19.0 | 0.0 | 0.00 | 0.00 | 0.00 | 24 | 1000.8 |
| 20260503232054 | 76 | 360 | 15.0 | 0.0 | 0.00 | 0.00 | 0.00 | 24 | 1000.9 |
| 20260503231554 | 76 | 360 | 15.0 | 0.0 | 0.00 | 0.00 | 0.00 | 24 | 1001.2 |
| 20260503231056 | 76 | 360 | 15.0 | 0.0 | 0.00 | 0.00 | 0.00 | 24 | 1001.2 |
| 20260503230555 | 76 | 360 | 16.0 | 0.0 | 0.00 | 0.00 | 0.00 | 24 | 1001.4 |
| 20260503230052 | 76 | 360 | 16.0 | 0.0 | 0.00 | 0.00 | 0.00 | 22 | 1001.5 |
| 20260503225551 | 76 | 360 | 17.0 | 0.0 | 0.00 | 0.00 | 0.00 | 22 | 1001.6 |
| 20260503225049 | 76 | 360 | 19.0 | 0.0 | 0.00 | 0.00 | 0.00 | 22 | 1001.8 |
| 20260503224557 | 76 | 360 | 18.0 | 0.0 | 0.00 | 0.00 | 0.00 | 22 | 1001.9 |
| 20260503224048 | 76 | 360 | 17.0 | 0.0 | 0.00 | 0.00 | 0.00 | 21 | 1002.0 |
| 20260503223547 | 76 | 360 | 17.0 | 0.0 | 0.00 | 0.00 | 0.00 | 22 | 1002.1 |
| 20260503223047 | 76 | 360 | 16.0 | 0.0 | 0.00 | 0.00 | 0.00 | 22 | 1002.2 |
| 20260503222047 | 76 | 360 | 18.0 | 0.0 | 0.00 | 0.00 | 0.00 | 21 | 1002.5 |
| 20260503221557 | 76 | 360 | 20.0 | 0.0 | 0.00 | 0.00 | 0.00 | 20 | 1002.5 |
| 20260503221049 | 76 | 360 | 19.0 | 0.0 | 0.00 | 0.00 | 0.00 | 20 | 1002.5 |
| 20260503220544 | 76 | 360 | 18.0 | 0.0 | 0.00 | 0.00 | 0.00 | 24 | 1002.8 |
| 20260503220043 | 76 | 360 | 17.0 | 0.0 | 0.00 | 0.00 | 0.00 | 24 | 1002.7 |
| 20260503215541 | 75 | 360 | 17.0 | 0.0 | 0.00 | 0.00 | 0.00 | 25 | 1002.7 |
| 20260503215041 | 75 | 360 | 19.0 | 0.0 | 0.00 | 0.00 | 0.00 | 24 | 1003.0 |
| 20260503214542 | 75 | 360 | 18.0 | 0.0 | 0.00 | 0.00 | 0.00 | 25 | 1003.1 |
| 20260503214039 | 75 | 360 | 17.0 | 0.0 | 0.00 | 0.00 | 0.00 | 25 | 1003.4 |
| 20260503213539 | 75 | 360 | 17.0 | 0.0 | 0.00 | 0.00 | 0.00 | 25 | 1003.3 |
| 20260503213044 | 76 | 360 | 18.0 | 0.0 | 0.00 | 0.00 | 0.00 | 25 | 1003.6 |
| 20260503212039 | 76 | 360 | 18.0 | 0.0 | 0.00 | 0.00 | 0.00 | 24 | 1003.8 |
| 20260503211537 | 75 | 360 | 19.0 | 0.0 | 0.00 | 0.00 | 0.00 | 25 | 1004.0 |
| 20260503211036 | 76 | 360 | 19.0 | 0.0 | 0.00 | 0.00 | 0.00 | 24 | 1004.0 |
| 20260503210536 | 75 | 360 | 17.0 | 0.0 | 0.00 | 0.00 | 0.00 | 23 | 1004.0 |
| 20260503210036 | 74 | 360 | 17.0 | 0.0 | 0.00 | 0.00 | 0.00 | 22 | 1004.2 |
| 20260503205536 | 75 | 360 | 16.0 | 0.0 | 0.00 | 0.00 | 0.00 | 24 | 1004.3 |
| 20260503205035 | 74 | 360 | 16.0 | 0.0 | 0.00 | 0.00 | 0.00 | 25 | 1004.5 |
| 20260503204533 | 74 | 360 | 17.0 | 0.0 | 0.00 | 0.00 | 0.00 | 25 | 1004.7 |
| 20260503204035 | 74 | 360 | 17.0 | 0.0 | 0.00 | 0.00 | 0.00 | 25 | 1004.5 |
| 20260503203534 | 74 | 360 | 17.0 | 0.0 | 0.00 | 0.00 | 0.00 | 25 | 1004.7 |
| 20260503203037 | 74 | 360 | 16.0 | 0.0 | 0.00 | 0.00 | 0.00 | 25 | 1004.7 |
| 20260503202033 | 75 | 360 | 18.0 | 0.0 | 0.00 | 0.00 | 0.00 | 24 | 1004.9 |
| 20260503201532 | 75 | 360 | 17.0 | 0.0 | 0.00 | 0.00 | 0.00 | 25 | 1005.0 |
| 20260503201032 | 75 | 360 | 16.0 | 0.0 | 0.00 | 0.00 | 0.00 | 27 | 1004.9 |
| 20260503200533 | 76 | 360 | 16.0 | 0.0 | 0.00 | 0.00 | 0.00 | 26 | 1005.1 |
| 20260503200030 | 75 | 360 | 17.0 | 0.0 | 0.00 | 0.00 | 0.00 | 26 | 1005.4 |
| 20260503195530 | 74 | 360 | 16.0 | 0.0 | 0.00 | 0.00 | 0.00 | 25 | 1005.3 |
| 20260503195028 | 74 | 360 | 17.0 | 0.0 | 0.00 | 0.00 | 0.00 | 27 | 1005.6 |
| 20260503194527 | 75 | 360 | 16.0 | 0.0 | 0.00 | 0.00 | 0.00 | 25 | 1005.8 |
| 20260503194027 | 74 | 360 | 15.0 | 0.0 | 0.00 | 0.00 | 0.00 | 28 | 1005.9 |
| 20260503193525 | 74 | 360 | 15.0 | 0.0 | 0.00 | 0.00 | 0.00 | 27 | 1006.0 |
| 20260503193040 | 74 | 360 | 17.0 | 0.0 | 0.00 | 0.00 | 0.00 | 28 | 1006.1 |
| 20260503192030 | 73 | 360 | 15.0 | 0.0 | 0.00 | 0.00 | 0.00 | 27 | 1006.4 |
| 20260503191557 | 73 | 360 | 16.0 | 0.0 | 0.00 | 0.00 | 0.00 | 29 | 1006.4 |
| 20260503191029 | 74 | 360 | 18.0 | 0.0 | 0.00 | 0.00 | 0.00 | 28 | 1006.6 |
| 20260503190527 | 74 | 360 | 15.0 | 0.0 | 0.00 | 0.00 | 0.00 | 28 | 1006.7 |
| 20260503190027 | 74 | 360 | 15.0 | 0.0 | 0.00 | 0.00 | 0.00 | 28 | 1006.7 |
| 20260503185525 | 74 | 360 | 16.0 | 0.0 | 0.00 | 0.00 | 0.00 | 28 | 1006.9 |
| 20260503185021 | 73 | 360 | 17.0 | 0.0 | 0.00 | 0.00 | 0.00 | 29 | 1007.0 |
| 20260503184521 | 74 | 360 | 17.0 | 0.0 | 0.00 | 0.00 | 0.00 | 28 | 1007.1 |
| 20260503184020 | 73 | 360 | 16.0 | 0.0 | 0.00 | 0.00 | 0.00 | 29 | 1007.3 |
| 20260503183522 | 73 | 360 | 18.0 | 0.0 | 0.00 | 0.00 | 0.00 | 28 | 1007.6 |
| 20260503183018 | 73 | 360 | 18.0 | 0.0 | 0.00 | 0.00 | 0.00 | 28 | 1007.7 |
| 20260503182016 | 73 | 360 | 16.0 | 0.0 | 0.00 | 0.00 | 0.00 | 28 | 1007.9 |
| 20260503181516 | 73 | 360 | 18.0 | 0.0 | 0.00 | 0.00 | 0.00 | 30 | 1008.1 |
| 20260503181016 | 73 | 360 | 18.0 | 0.0 | 0.00 | 0.00 | 0.00 | 27 | 1008.2 |
| 20260503180515 | 73 | 360 | 17.0 | 0.0 | 0.00 | 0.00 | 0.00 | 29 | 1008.3 |
| 20260503180014 | 73 | 360 | 16.0 | 0.0 | 0.00 | 0.00 | 0.00 | 28 | 1008.3 |
| 20260503175513 | 72 | 360 | 16.0 | 0.0 | 0.00 | 0.00 | 0.00 | 29 | 1008.3 |
| 20260503175016 | 72 | 360 | 18.0 | 0.0 | 0.00 | 0.00 | 0.00 | 29 | 1008.5 |
| 20260503174512 | 72 | 360 | 17.0 | 0.0 | 0.00 | 0.00 | 0.00 | 29 | 1008.6 |
| 20260503174016 | 72 | 360 | 15.0 | 0.0 | 0.00 | 0.00 | 0.00 | 31 | 1008.6 |
| 20260503173511 | 71 | 360 | 15.0 | 0.0 | 0.00 | 0.00 | 0.00 | 30 | 1008.8 |
| 20260503173010 | 71 | 360 | 16.0 | 0.0 | 0.00 | 0.00 | 0.00 | 30 | 1008.8 |
| 20260503172013 | 71 | 360 | 16.0 | 0.0 | 0.00 | 0.00 | 0.00 | 31 | 1009.0 |
| 20260503171509 | 71 | 360 | 17.0 | 0.0 | 0.00 | 0.00 | 0.00 | 30 | 1009.0 |
| 20260503171008 | 71 | 360 | 15.0 | 0.0 | 0.00 | 0.00 | 0.00 | 28 | 1009.2 |
| 20260503170507 | 71 | 360 | 13.0 | 0.0 | 0.00 | 0.00 | 0.00 | 31 | 1009.3 |
| 20260503160108 | 68 | 360 | 13.0 | 0.0 | 0.00 | 0.00 | 0.00 | 34 | 1010.5 |
| 20260503150551 | 65 | 360 | 13.0 | 0.0 | 0.00 | 0.00 | 0.00 | 34 | 1011.4 |
| 20260503131022 | 44 | 360 | 1.0 | 0.0 | 0.00 | 0.00 | 0.00 | 65 | 1012.8 |
| 20260503130521 | 43 | 360 | 1.0 | 0.0 | 0.00 | 0.00 | 0.00 | 67 | 1012.8 |
| 20260503110504 | 29 | 360 | 0.0 | 0.0 | 0.00 | 0.00 | 0.00 | 81 | 1013.5 |